�������l�o���
Date,Time,MP-1(��Sv/h),MP-2(��Sv/h),MP-3(��Sv/h),MP-4(��Sv/h),MP-5(��Sv/h),MP-6(��Sv/h),MP-7(��Sv/h),MP-8(��Sv/h),����,����(m/s),���J
2019/02/20,00:00,0.778,1.128,0.791,1.477,1.055,0.445,0.788,0.749,�k,3.3,�L
2019/02/20,00:10,0.778,1.131,0.792,1.476,1.055,0.445,0.790,0.748,���k��,1.2,��
2019/02/20,00:20,0.778,1.129,0.790,1.476,1.056,0.445,0.789,0.747,���쐼,2.5,��
2019/02/20,00:30,0.775,1.130,0.791,1.473,1.055,0.444,0.789,0.746,���쐼,3.6,��
2019/02/20,00:40,0.777,1.133,0.792,1.475,1.056,0.444,0.790,0.748,���쐼,2.3,��
2019/02/20,00:50,0.775,1.129,0.792,1.475,1.053,0.445,0.790,0.746,�k��,1.5,��
2019/02/20,01:00,0.775,1.132,0.791,1.474,1.054,0.444,0.789,0.746,�k�k��,3.2,��
2019/02/20,01:10,0.776,1.131,0.792,1.474,1.054,0.446,0.791,0.747,�k�k��,1.8,��
2019/02/20,01:20,0.777,1.129,0.789,1.477,1.056,0.445,0.791,0.746,�k�k��,2.6,��
2019/02/20,01:30,0.775,1.129,0.790,1.476,1.052,0.444,0.791,0.746,�k��,1.4,��
2019/02/20,01:40,0.777,1.127,0.790,1.473,1.054,0.445,0.790,0.746,-,CALM,��
2019/02/20,01:50,0.777,1.128,0.790,1.474,1.055,0.445,0.789,0.747,�k��,0.9,��
2019/02/20,02:00,0.775,1.129,0.790,1.472,1.052,0.447,0.790,0.744,�k,2.6,��
2019/02/20,02:10,0.777,1.132,0.790,1.476,1.052,0.445,0.792,0.744,�k�k��,3.6,��
2019/02/20,02:20,0.777,1.128,0.791,1.473,1.053,0.445,0.790,0.745,�k�k��,3.1,��
2019/02/20,02:30,0.775,1.133,0.792,1.474,1.054,0.445,0.791,0.747,�k��,2.6,��
2019/02/20,02:40,0.775,1.130,0.789,1.476,1.054,0.444,0.791,0.749,�k�k��,2.3,��
2019/02/20,02:50,0.775,1.127,0.791,1.470,1.054,0.445,0.789,0.745,�k�k��,2.3,��
2019/02/20,03:00,0.777,1.128,0.790,1.473,1.055,0.445,0.791,0.746,�k,2.6,��
2019/02/20,03:10,0.776,1.131,0.792,1.474,1.056,0.443,0.791,0.747,�k,3.9,��
2019/02/20,03:20,0.776,1.129,0.789,1.475,1.053,0.445,0.790,0.747,�k,4.7,��
2019/02/20,03:30,0.776,1.131,0.788,1.476,1.052,0.445,0.789,0.746,�k,4.6,��
2019/02/20,03:40,0.776,1.129,0.791,1.473,1.055,0.444,0.789,0.744,�k,7.1,��
2019/02/20,03:50,0.774,1.129,0.789,1.474,1.052,0.442,0.791,0.746,�k,7.5,��
2019/02/20,04:00,0.774,1.130,0.789,1.476,1.052,0.444,0.790,0.745,�k,6.9,��
2019/02/20,04:10,0.776,1.129,0.791,1.475,1.055,0.445,0.790,0.747,�k,6.5,��
2019/02/20,04:20,0.776,1.129,0.791,1.473,1.055,0.444,0.790,0.747,�k,5.9,��
2019/02/20,04:30,0.774,1.129,0.791,1.475,1.054,0.445,0.791,0.745,�k,6.0,��
2019/02/20,04:40,0.775,1.131,0.790,1.473,1.054,0.443,0.791,0.746,�k,5.6,��
2019/02/20,04:50,0.774,1.129,0.789,1.475,1.052,0.443,0.791,0.746,�k,5.3,��
2019/02/20,05:00,0.776,1.129,0.791,1.476,1.055,0.444,0.791,0.746,�k�k��,5.0,��
2019/02/20,05:10,0.776,1.127,0.789,1.474,1.054,0.445,0.789,0.749,�k�k��,5.5,��
2019/02/20,05:20,0.775,1.128,0.792,1.474,1.053,0.444,0.790,0.746,�k�k��,4.9,��
2019/02/20,05:30,0.774,1.129,0.792,1.473,1.052,0.442,0.790,0.747,�k�k��,4.6,��
2019/02/20,05:40,0.775,1.130,0.789,1.474,1.052,0.444,0.791,0.746,�k�k��,5.1,��
2019/02/20,05:50,0.775,1.132,0.789,1.472,1.053,0.445,0.788,0.747,�k�k��,5.2,��
2019/02/20,06:00,0.775,1.128,0.792,1.474,1.054,0.445,0.789,0.748,�k�k��,5.4,��
2019/02/20,06:10,0.776,1.131,0.789,1.475,1.053,0.443,0.791,0.747,�k�k��,4.5,��
2019/02/20,06:20,0.775,1.131,0.792,1.473,1.055,0.444,0.790,0.746,�k�k��,4.5,��
2019/02/20,06:30,0.776,1.127,0.790,1.474,1.053,0.443,0.789,0.746,�k��,3.8,��
2019/02/20,06:40,0.775,1.127,0.790,1.474,1.052,0.443,0.790,0.747,�k�k��,3.8,��
2019/02/20,06:50,0.774,1.129,0.791,1.472,1.053,0.445,0.791,0.747,�k��,2.6,��
2019/02/20,07:00,0.775,1.127,0.789,1.472,1.053,0.444,0.789,0.746,���k��,3.2,��
2019/02/20,07:10,0.775,1.128,0.791,1.471,1.052,0.443,0.789,0.746,���k��,3.4,��
2019/02/20,07:20,0.774,1.128,0.789,1.474,1.053,0.444,0.789,0.746,���k��,2.9,��
2019/02/20,07:30,0.775,1.130,0.792,1.473,1.053,0.445,0.789,0.745,�k��,3.2,��
2019/02/20,07:40,0.777,1.129,0.789,1.472,1.054,0.444,0.790,0.746,�k��,4.1,��
2019/02/20,07:50,0.777,1.130,0.787,1.473,1.053,0.444,0.791,0.747,�k�k��,3.0,��
2019/02/20,08:00,0.777,1.128,0.790,1.473,1.053,0.444,0.791,0.746,�k�k��,2.0,��
2019/02/20,08:10,0.776,1.130,0.790,1.475,1.053,0.443,0.789,0.748,�k,3.4,��
2019/02/20,08:20,0.778,1.128,0.790,1.473,1.052,0.444,0.789,0.747,�k,4.1,��
2019/02/20,08:30,0.775,1.128,0.789,1.473,1.055,0.444,0.790,0.747,�k,4.3,��
2019/02/20,08:40,0.776,1.128,0.787,1.475,1.055,0.443,0.790,0.748,�k�k��,4.3,��
2019/02/20,08:50,0.776,1.126,0.786,1.471,1.054,0.443,0.790,0.748,�k,3.3,��
2019/02/20,09:00,0.778,1.129,0.790,1.470,1.054,0.443,0.788,0.747,�k,3.9,��
2019/02/20,09:10,0.777,1.130,0.788,1.473,1.054,0.444,0.789,0.746,�k,3.2,��
2019/02/20,09:20,0.777,1.129,0.791,1.475,1.054,0.445,0.788,0.746,�k,3.0,��
2019/02/20,09:30,0.780,1.130,0.787,1.475,1.057,0.444,0.790,0.747,�k,3.7,��
2019/02/20,09:40,0.775,1.126,0.790,1.474,1.055,0.444,0.790,-,�k,4.7,��
2019/02/20,09:50,0.774,1.129,0.789,1.473,1.054,0.445,0.788,-,�k,4.6,��
2019/02/20,10:00,0.775,1.127,0.788,1.475,1.058,0.444,0.789,-,�k,4.8,�L
2019/02/20,10:10,0.773,1.126,0.788,1.474,1.055,0.444,0.787,-,�k,5.3,�L
2019/02/20,10:20,0.775,1.126,0.788,1.472,1.056,0.442,0.788,0.743,�k,4.0,�L
2019/02/20,10:30,0.776,1.128,0.789,1.472,1.056,0.443,0.789,0.741,�k,3.9,��
2019/02/20,10:40,0.775,1.126,0.789,1.473,1.056,0.445,0.789,0.743,�k�k��,5.0,��
2019/02/20,10:50,0.779,1.128,0.789,1.476,1.056,0.443,0.788,0.741,�k�k��,5.2,��
2019/02/20,11:00,0.776,1.130,0.786,1.475,1.057,0.441,0.789,0.744,�k�k��,6.1,��
2019/02/20,11:10,0.776,1.130,0.789,1.472,1.057,0.443,0.790,0.743,�k,6.4,��
2019/02/20,11:20,0.777,1.131,0.790,1.476,1.060,0.444,0.790,0.744,�k,7.4,��
2019/02/20,11:30,0.777,1.131,0.785,1.475,1.060,0.443,0.789,0.744,�k,6.5,��
2019/02/20,11:40,0.776,1.129,0.785,1.475,1.057,0.442,0.789,0.746,�k,6.8,��
2019/02/20,11:50,0.778,1.132,0.789,1.474,1.057,0.443,0.790,0.745,�k,8.5,��
2019/02/20,12:00,0.776,1.131,0.787,1.473,1.057,0.443,0.789,0.746,�k,7.6,��
2019/02/20,12:10,0.777,1.133,0.787,1.473,1.056,0.444,0.788,0.746,�k�k��,7.8,��
2019/02/20,12:20,0.777,1.137,0.792,1.476,1.058,0.444,0.789,0.747,�k,7.7,�L
2019/02/20,12:30,0.778,1.134,0.791,1.478,1.057,0.443,0.788,0.747,�k,9.0,�L
2019/02/20,12:40,0.779,1.130,0.791,1.478,1.056,0.443,0.789,0.745,�k,8.9,�L
2019/02/20,12:50,0.778,1.130,0.792,1.475,1.058,0.442,0.789,0.744,�k,7.5,�L
2019/02/20,13:00,0.779,1.131,0.792,1.477,1.057,0.444,0.789,0.744,�k,5.6,��
2019/02/20,13:10,0.778,1.131,0.793,1.475,1.058,0.445,0.791,0.745,�k,5.5,��
2019/02/20,13:20,0.779,1.129,0.792,1.476,1.055,0.443,0.789,0.744,�k�k��,6.4,��
2019/02/20,13:30,0.778,1.130,0.793,1.476,1.058,0.443,0.789,0.743,�k�k��,6.7,��
2019/02/20,13:40,0.780,1.132,0.792,1.476,1.059,0.444,0.790,0.744,�k,6.4,��
2019/02/20,13:50,0.779,1.133,0.792,1.478,1.058,0.443,0.789,0.745,�k�k��,6.2,��
2019/02/20,14:00,0.778,1.132,0.793,1.479,1.060,0.444,0.789,0.746,�k��,5.5,��
2019/02/20,14:10,0.779,1.134,0.791,1.475,1.060,0.444,0.789,0.746,�k��,4.9,��
2019/02/20,14:20,0.781,1.131,0.793,1.479,1.058,0.444,0.790,0.747,�k�k��,4.9,��
2019/02/20,14:30,0.779,1.134,0.794,1.478,1.061,0.443,0.788,0.747,�k,5.2,��
2019/02/20,14:40,0.778,1.134,0.791,1.475,1.063,0.444,0.790,0.746,�k��,4.1,��
2019/02/20,14:50,0.778,1.135,0.793,1.478,1.062,0.443,0.790,0.746,���k��,6.0,��
2019/02/20,15:00,0.777,1.136,0.793,1.477,1.061,0.443,0.788,0.745,���k��,6.1,��
2019/02/20,15:10,0.779,1.134,0.791,1.476,1.063,0.442,0.790,0.746,���k��,5.3,��
2019/02/20,15:20,0.780,1.134,0.791,1.477,1.060,0.444,0.790,0.746,�k��,6.2,��
2019/02/20,15:30,0.777,1.136,0.793,1.477,1.061,0.443,0.790,0.747,���k��,6.2,��
2019/02/20,15:40,0.778,1.136,0.792,1.478,1.063,0.444,0.791,0.748,���k��,5.7,�L
2019/02/20,15:50,0.778,1.138,0.793,1.480,1.061,0.445,0.790,0.746,���k��,5.6,�L
2019/02/20,16:00,0.779,1.138,0.793,1.478,1.062,0.443,0.791,0.748,���k��,5.0,�L
2019/02/20,16:10,0.778,1.137,0.791,1.476,1.060,0.445,0.789,0.748,���k��,4.6,�L
2019/02/20,16:20,0.777,1.139,0.793,1.477,1.063,0.444,0.792,0.747,���k��,4.8,�L
2019/02/20,16:30,0.778,1.140,0.792,1.478,1.062,0.444,0.791,0.747,�k��,4.6,�L
2019/02/20,16:40,0.779,1.139,0.794,1.479,1.061,0.445,0.791,0.747,���k��,3.9,�L
2019/02/20,16:50,0.778,1.136,0.792,1.479,1.062,0.445,0.791,0.749,�k�k��,3.2,�L
2019/02/20,17:00,0.779,1.140,0.793,1.479,1.061,0.446,0.790,0.747,�k��,2.9,��
2019/02/20,17:10,0.777,1.139,0.792,1.479,1.061,0.441,0.791,0.748,�k�k��,2.9,��
2019/02/20,17:20,0.780,1.140,0.794,1.480,1.061,0.443,0.790,0.748,�k,2.5,��
2019/02/20,17:30,0.779,1.139,0.792,1.476,1.061,0.445,0.790,0.747,�k,0.9,�L
2019/02/20,17:40,0.778,1.138,0.793,1.478,1.062,0.444,0.791,-,�k��,2.5,�L
2019/02/20,17:50,0.778,1.138,0.794,1.480,1.061,0.445,0.791,-,�k�k��,2.3,�L
2019/02/20,18:00,0.779,1.137,0.794,1.476,1.063,0.444,0.791,-,�k�k��,3.0,��
2019/02/20,18:10,0.779,1.139,0.793,1.479,1.063,0.444,0.791,-,�k��,3.7,��
2019/02/20,18:20,0.778,1.137,0.794,1.479,1.060,0.445,0.790,-,�k��,3.3,�L
2019/02/20,18:30,0.779,1.139,0.794,1.478,1.059,0.446,0.790,0.745,�k�k��,3.6,�L
2019/02/20,18:40,0.778,1.138,0.794,1.478,1.065,0.445,0.790,0.743,�k�k��,4.0,�L
2019/02/20,18:50,0.779,1.135,0.794,1.477,1.064,0.445,0.790,0.743,�k�k��,3.9,�L
2019/02/20,19:00,0.779,1.135,0.793,1.480,1.064,0.445,0.790,0.744,�k��,3.2,�L
2019/02/20,19:10,0.777,1.139,0.794,1.479,1.060,0.445,0.791,0.746,�k�k��,1.5,�L
2019/02/20,19:20,0.778,1.133,0.793,1.477,1.061,0.446,0.790,0.746,�k��,3.4,�L
2019/02/20,19:30,0.777,1.132,0.795,1.474,1.057,0.445,0.792,0.747,�k��,3.3,�L
2019/02/20,19:40,0.778,1.129,0.793,1.476,1.055,0.448,0.790,0.748,�k�k��,2.3,�L
2019/02/20,19:50,0.776,1.128,0.792,1.476,1.055,0.447,0.790,0.747,��,1.5,�L
2019/02/20,20:00,0.777,1.126,0.791,1.473,1.055,0.449,0.789,0.747,���k��,1.8,�L
2019/02/20,20:10,0.777,1.120,0.792,1.468,1.051,0.448,0.790,0.746,�k�k��,1.5,�L
2019/02/20,20:20,0.774,1.120,0.790,1.468,1.050,0.450,0.789,0.745,�k,1.7,�L
2019/02/20,20:30,0.776,1.120,0.789,1.466,1.049,0.446,0.787,0.746,��,0.9,�L
2019/02/20,20:40,0.772,1.119,0.788,1.465,1.049,0.446,0.787,0.745,�k��,1.7,�L
2019/02/20,20:50,0.772,1.119,0.789,1.464,1.048,0.445,0.787,0.745,�k�k��,1.5,�L
2019/02/20,21:00,0.772,1.118,0.787,1.465,1.046,0.446,0.787,0.745,�k��,1.2,�L
2019/02/20,21:10,0.770,1.115,0.785,1.460,1.046,0.447,0.787,0.744,���쐼,0.6,�L
2019/02/20,21:20,0.771,1.114,0.785,1.457,1.044,0.445,0.786,0.745,-,CALM,�L
2019/02/20,21:30,0.768,1.115,0.784,1.459,1.042,0.444,0.787,0.743,�k�k��,0.8,�L
2019/02/20,21:40,0.769,1.112,0.784,1.459,1.042,0.447,0.787,0.744,�k�k��,1.1,�L
2019/02/20,21:50,0.767,1.113,0.782,1.455,1.042,0.446,0.786,0.744,�쐼,0.9,�L
2019/02/20,22:00,0.768,1.113,0.783,1.456,1.041,0.444,0.784,0.742,�k�k��,0.8,�L
2019/02/20,22:10,0.767,1.110,0.782,1.455,1.039,0.445,0.784,0.743,�k�k��,1.4,�L
2019/02/20,22:20,0.766,1.113,0.779,1.455,1.037,0.444,0.786,0.742,�k�k��,1.2,�L
2019/02/20,22:30,0.765,1.107,0.782,1.451,1.041,0.443,0.785,0.741,�쐼,0.9,�L
2019/02/20,22:40,0.763,1.109,0.780,1.455,1.040,0.443,0.785,0.743,���쐼,1.5,�L
2019/02/20,22:50,0.767,1.111,0.781,1.453,1.038,0.443,0.786,0.740,���k��,2.3,�L
2019/02/20,23:00,0.766,1.111,0.780,1.454,1.039,0.441,0.784,0.741,��,1.2,�L
2019/02/20,23:10,0.762,1.108,0.778,1.450,1.036,0.443,0.784,0.742,���쐼,1.4,�L
2019/02/20,23:20,0.765,1.108,0.777,1.451,1.037,0.442,0.784,0.742,��,1.2,��
2019/02/20,23:30,0.765,1.109,0.779,1.452,1.039,0.442,0.786,0.741,���k��,1.5,��
2019/02/20,23:40,0.762,1.109,0.780,1.450,1.037,0.441,0.783,0.743,�k�k��,2.2,��
2019/02/20,23:50,0.762,1.111,0.779,1.453,1.038,0.440,0.784,0.742,�k�k��,3.8,�L
